Regional Weather Roundup
Issued by NWS

Home | Current Version | Previous Version | Text Only | Print | Product List | Glossary Off
Versions: 1 2 3 4 5 6 7 8 9 10 11 12 13 14 15 16 17 18 19 20 21 22 23 24 25 26 27 28 29 30 31 32 33 34 35 36 37 38 39 40 41 42 43 44 45 46 47 48 49 50

000
ASUS43 KLOT 160403
RWRIL

ILLINOIS REGIONAL WEATHER ROUNDUP
NATIONAL WEATHER SERVICE CHICAGO/ROMEOVILLE IL
1000 PM CST FRI DEC 15 2017

NOTE: "FAIR" INDICATES FEW OR NO CLOUDS BELOW 12,000 FEET WITH NO
SIGNIFICANT WEATHER AND/OR OBSTRUCTIONS TO VISIBILITY.

* THESE STATIONS ARE NOT UNDER NWS QUALITY CONTROL. THEY ALSO MAY NOT
  REPORT WEATHER SUCH AS PRECIPITATION OR FOG.

ILZ001-002-007-009-015-016-024-160500-
NORTHWEST ILLINOIS

CITY           SKY/WX    TMP DP  RH WIND       PRES   REMARKS
MOLINE         CLOUDY    38  22  52 SW14      29.87F WCI  30
STERLING*      CLOUDY    35  22  58 SW6       29.88F WCI  30
$$

ILZ003-004-008-010-011-017-018-160500-
NORTH CENTRAL ILLINOIS

CITY           SKY/WX    TMP DP  RH WIND       PRES   REMARKS
ROCKFORD       CLOUDY    35  23  61 SW9       29.87F WCI  28
FREEPORT*      CLOUDY    33  24  68 SW15G23   29.86F WCI  23
ROCHELLE*      CLOUDY    34  23  65 S14       29.88F WCI  24
DE KALB*       CLOUDY    34  23  66 SW14      29.88F WCI  24
$$

ILZ005-006-012>014-019>023-160500-
NORTHEAST ILLINOIS

CITY           SKY/WX    TMP DP  RH WIND       PRES   REMARKS
CHICAGO-OHARE  CLOUDY    35  21  56 SW12      29.88F WCI  27
CHICAGO-MIDWAY CLOUDY    36  22  56 SW12      29.90F WCI  28
AURORA         CLOUDY    36  22  56 SW15G23   29.90F WCI  27
LANSING*       CLOUDY    35  24  63 SW13      29.92F WCI  26
JOLIET*        CLOUDY    38  22  52 SW9G20    29.92S WCI  32
WAUKEGAN       CLOUDY    32  25  75 SW8       29.85F WCI  25
DUPAGE AIRPORT CLOUDY    35  23  61 SW13      29.88F WCI  26
WHEELING       CLOUDY    35  23  61 SW10      29.89F WCI  27
NORTHERLY ISL    N/A     35  20  54 S6          N/A  WCI  30
$$

LMZ740>746-160500-
SOUTHERN LAKE MICHIGAN

STATION/POSITION SKY/WX   TEMP    WIND        PRES    VSBY  WAVE
                          AIR SEA DIR/SP/G                  HT/PER
                          (F)     (DEG/KT/KT) (MB)    (MI)  (FT/S)
HARRISON CRIB              37     210/ 17/ 20   N/A
BURNHAM HARBOR             35     210/  6/  9   N/A
CALUMET HARBOR             35     200/  8/ 10 1012.3F
BURNS HARBOR               35     220/ 13/ 16 1013.5F
MICHIGAN CITY              34     200/ 16/ 18   N/A
$$

ILZ025>027-034>036-040-047-049-050-058-095>099-160500-
WEST-CENTRAL ILLINOIS

CITY           SKY/WX    TMP DP  RH WIND       PRES   REMARKS
QUINCY         CLEAR     35  24  64 SW15      29.95F WCI  25
GALESBURG*     CLOUDY    36  24  61 S13       29.92F WCI  27
MACOMB*        CLOUDY    37  22  56 S10       29.95F WCI  29
PITTSFIELD*    CLOUDY    34  24  68 S10       29.99F WCI  26
$$

ILZ028>032-037-038-041>044-048-051>054-059>061-160500-
CENTRAL ILLINOIS

CITY           SKY/WX    TMP DP  RH WIND       PRES   REMARKS
BLOOMINGTON    CLOUDY    33  20  58 SW15      29.98S WCI  23
DECATUR        CLEAR     31  21  66 SW12      30.02S WCI  22
PEORIA         MOCLDY    33  21  61 S9        29.96F WCI  25
LACON*         CLOUDY    35  22  57 SW9       29.94S WCI  28
LINCOLN*       CLEAR     32  22  66 S3        29.99F
SPRINGFIELD    CLOUDY    33  21  61 S12       30.01S WCI  24
TAYLORVILLE    NOT AVBL
$$

ILZ033-039-045-046-055>057-062-063-160500-
EAST-CENTRAL ILLINOIS

CITY           SKY/WX    TMP DP  RH WIND       PRES   REMARKS
CHAMPAIGN      CLEAR     29  21  72 S10       30.01S WCI  20
DANVILLE*      CLEAR     31  22  66 SW10      29.99F WCI  23
MATTOON        CLEAR     32  24  72 SW7       30.04R WCI  26
$$

ILZ079-100>102-160500-
SOUTHWEST ILLINOIS

CITY           SKY/WX    TMP DP  RH WIND       PRES   REMARKS
ALTON          CLEAR     30  23  74 S7        30.06R WCI  23
BELLEVILLE     CLEAR     29  20  68 SW5       30.06S WCI  24
CAHOKIA*       CLEAR     28  20  71 S3        30.07S
SPARTA*        CLEAR     35  27  73 S6        30.09F WCI  29
$$

ILZ064>066-069>071-074>076-080>082-084>086-088>090-092>094-160500-
SOUTH-CENTRAL ILLINOIS

CITY           SKY/WX    TMP DP  RH WIND       PRES   REMARKS
CARBONDALE     PTCLDY    26  24  92 SE5       30.11S WCI  20
CAIRO*         PTCLDY    38  29  70 S8        30.13S WCI  33
EFFINGHAM*     CLEAR     32  25  74 S3        30.08S
MARION         CLEAR     32  26  76 S6        30.11F WCI  27
MT. VERNON     CLEAR     24  22  91 CALM      30.09F
CENTRALIA*     CLEAR     31  26  81 S5        30.08R WCI  26
SALEM*         CLEAR     32  24  72 S3        30.08S
METROPOLIS*    CLEAR     37  28  70 SW3       30.14S
$$

ILZ067-068-072-073-078-083-087-091-160500-
SOUTHEAST ILLINOIS

CITY           SKY/WX    TMP DP  RH WIND       PRES   REMARKS
LAWRENCEVILLE  CLEAR     28  23  81 S8        30.10S WCI  20
FLORA*         CLEAR     30  24  78 S5        30.10R WCI  26
HARRISBURG*    PTCLDY    30  26  86 CALM      30.12S
ROBINSON*      CLEAR     29  24  79 S8        30.10R WCI  21
CARMI*         PTCLDY    29  26  88 S5        30.11S WCI  24
$$

ABBREVIATIONS USED IN REMARKS
   TC - TEMPERATURE IN CELSIUS
  WCI - WIND CHILL INDEX
   HX - HEAT INDEX
  VSB - VISIBILITY
$$





USA.gov is the U.S. government's official web portal to all federal, state and local government web resources and services.